Overview Statistics Trail Chart Weather Telemetry Raw packets
 

This is the latest recevied weather packets stored in our database for station/object SQ9SMC-13. If no packets are shown the sender has not sent any weather packets the latest 10 day(s).

<< 78 79 80 81 82 83 84 >>
Time Temp. Humidity Pressure Rain* Wind** Luminosity Snow
1777126503 20° C 25% 1011.5 hPa 0 mm - 371 W/m² -
1777126203 19.44° C 26% 1011.4 hPa 0 mm - 381 W/m² -
1777125903 19.44° C 26% 1011.7 hPa 0 mm - 391 W/m² -
1777125603 20° C 26% 1011.7 hPa 0 mm - 404 W/m² -
1777125303 19.44° C 25% 1011.6 hPa 0 mm - 415 W/m² -
1777125002 20° C 26% 1011.7 hPa 0 mm - 429 W/m² -
1777124703 20° C 27% 1011.5 hPa 0 mm - 439 W/m² -
1777124403 19.44° C 26% 1011.6 hPa 0 mm - 445 W/m² -
1777124103 20° C 26% 1011.9 hPa 0 mm - 454 W/m² -
1777123805 19.44° C 25% 1011.7 hPa 0 mm - 465 W/m² -
1777123504 19.44° C 26% 1011.6 hPa 0 mm - 475 W/m² -
1777123203 19.44° C 27% 1011.8 hPa 0 mm - 485 W/m² -
1777122905 19.44° C 27% 1012 hPa 0 mm - 495 W/m² -
1777122606 19.44° C 28% 1011.7 hPa 0 mm - 506 W/m² -
1777122304 19.44° C 32% 1011.9 hPa 0 mm - 513 W/m² -
1777122003 19.44° C 32% 1012.2 hPa 0 mm - 523 W/m² -
1777121704 19.44° C 31% 1011.9 hPa 0 mm - 525 W/m² -
1777121403 19.44° C 33% 1011.9 hPa 0 mm - 537 W/m² -
1777121102 18.89° C 33% 1012.1 hPa 0 mm - 544 W/m² -
1777120803 18.89° C 37% 1012.1 hPa 0 mm - 545 W/m² -
1777120504 18.89° C 37% 1012.6 hPa 0 mm - 555 W/m² -
1777120204 18.89° C 39% 1012.5 hPa 0 mm - 555 W/m² -
1777119903 17.78° C 40% 1012.5 hPa 0 mm - 568 W/m² -
1777119604 18.33° C 39% 1012.5 hPa 0 mm - 569 W/m² -
1777119304 17.78° C 39% 1012.6 hPa 0 mm - 573 W/m² -

* Rain latest hour (hover to see other rain measurements)
** Current wind speed in m/s (hover to see current wind gust speed)